TimeCST,TemperatureF,Dew PointF,Humidity,Sea Level PressureIn,VisibilityMPH,Wind Direction,Wind SpeedMPH,Gust SpeedMPH,PrecipitationIn,Events,Conditions,WindDirDegrees,DateUTC
12:53 AM,71.1,68.0,90,29.81,10.0,SE,5.8,-,N/A,,Clear,130,2012-12-08 06:53:00
1:53 AM,71.1,69.1,93,29.81,10.0,SE,4.6,-,N/A,,Partly Cloudy,140,2012-12-08 07:53:00
2:53 AM,70.0,69.1,97,29.80,10.0,SSE,5.8,-,N/A,,Mostly Cloudy,160,2012-12-08 08:53:00
3:01 AM,69.8,68.0,94,29.80,9.0,SSE,5.8,-,N/A,,Scattered Clouds,160,2012-12-08 09:01:00
3:53 AM,71.1,69.1,93,29.79,9.0,SE,6.9,-,N/A,,Mostly Cloudy,140,2012-12-08 09:53:00
4:53 AM,71.1,69.1,93,29.79,9.0,SSE,9.2,-,N/A,,Mostly Cloudy,150,2012-12-08 10:53:00
5:53 AM,71.1,70.0,96,29.81,9.0,SE,5.8,-,N/A,,Clear,140,2012-12-08 11:53:00
6:53 AM,71.1,70.0,96,29.84,9.0,ESE,3.5,-,N/A,,Mostly Cloudy,120,2012-12-08 12:53:00
7:53 AM,72.0,70.0,93,29.86,7.0,ESE,4.6,-,N/A,,Overcast,110,2012-12-08 13:53:00
8:53 AM,75.9,72.0,87,29.88,9.0,SE,8.1,-,N/A,,Scattered Clouds,130,2012-12-08 14:53:00
9:53 AM,79.0,71.1,77,29.89,10.0,SSE,13.8,-,N/A,,Mostly Cloudy,160,2012-12-08 15:53:00
10:07 AM,80.6,69.8,70,29.89,10.0,SSE,18.4,-,N/A,,Mostly Cloudy,160,2012-12-08 16:07:00
10:18 AM,80.6,69.8,70,29.89,10.0,SSE,16.1,21.9,N/A,,Scattered Clouds,150,2012-12-08 16:18:00
10:53 AM,82.0,68.0,62,29.88,9.0,SSE,16.1,-,N/A,,Scattered Clouds,160,2012-12-08 16:53:00
11:53 AM,84.0,66.9,56,29.86,7.0,South,18.4,25.3,N/A,,Scattered Clouds,170,2012-12-08 17:53:00
12:53 PM,82.9,69.1,63,29.83,7.0,SSE,16.1,-,N/A,,Scattered Clouds,150,2012-12-08 18:53:00
1:53 PM,81.0,69.1,67,29.81,7.0,SSE,19.6,24.2,N/A,,Mostly Cloudy,150,2012-12-08 19:53:00
2:53 PM,80.1,69.1,69,29.81,8.0,SSE,16.1,24.2,N/A,,Overcast,150,2012-12-08 20:53:00
3:53 PM,79.0,69.1,72,29.80,9.0,SSE,18.4,-,N/A,,Scattered Clouds,150,2012-12-08 21:53:00
4:53 PM,78.1,68.0,71,29.81,10.0,SSE,16.1,-,N/A,,Partly Cloudy,150,2012-12-08 22:53:00
5:53 PM,75.9,69.1,79,29.83,10.0,SE,9.2,-,N/A,,Overcast,140,2012-12-08 23:53:00
6:53 PM,73.9,69.1,85,29.85,10.0,SE,10.4,-,N/A,,Clear,130,2012-12-09 00:53:00
7:53 PM,73.0,69.1,87,29.86,10.0,SE,8.1,-,N/A,,Clear,130,2012-12-09 01:53:00
8:53 PM,73.0,69.1,87,29.87,10.0,SE,8.1,-,N/A,,Clear,140,2012-12-09 02:53:00
9:53 PM,72.0,69.1,91,29.87,10.0,SE,6.9,-,N/A,,Clear,140,2012-12-09 03:53:00
10:53 PM,73.0,70.0,90,29.88,10.0,SE,8.1,-,N/A,,Overcast,140,2012-12-09 04:53:00
11:53 PM,73.0,70.0,90,29.86,10.0,SSE,8.1,-,N/A,,Mostly Cloudy,150,2012-12-09 05:53:00